Rochester, MN
on Thursday, December 13, 2012

Thursday
Previous Day Next Day
Daily Summary
 ActualAverageRecord
Temperature
Mean Temperature °F 20°F  
Max Temperature 37°F 27°F 62°F (1908)
Min Temperature 19°F 13°F -21°F (1958)
Degree Days
Heating Degree Days 37 45  
Month to date heating degree days 438 554  
Since 1 July heating degree days 1892 2226  
Cooling Degree Days 0 0  
Month to date cooling degree days 0 0  
Year to date cooling degree days 888 585  
Moisture
Dew Point 19°F   
Average Humidity 68    
Maximum Humidity 84    
Minimum Humidity 51    
Precipitation
Precipitation 0.00 in 0.04 in 0.58 in (1975)
Month to date precipitation 0.66 0.61  
Year to date precipitation 23.72 32.40  
Snow
Snow 0.00 in 0.40 in 3.00 in (1983)
Month to date snowfall 4.3 5.5  
Since 1 July snowfall 4.4 12.4  
Snow Depth 3.00 in   
Wind
Wind Speed 10 mph   
Max Wind Speed 22 mph   
Max Gust Speed 28 mph   
Visibility 9 miles   
Events     

Key: T is trace of precipitation, MM is missing value
Source: NWS Daily Summary
Time(CST)TemperatureDew PointHumidity Pressure Visibility Wind DirectionWind SpeedGust SpeedPrecipitationEvents Conditions
12:54 AM 34.0°F 19.0°F 54% 30.02 in 10.0 miles South 18.4 mph - N/A   Clear
1:54 AM 33.1°F 18.0°F 54% 30.02 in 10.0 miles South 18.4 mph - N/A   Clear
2:54 AM 33.1°F 18.0°F 54% 30.00 in 10.0 miles South 19.6 mph - N/A   Clear
3:54 AM 33.1°F 18.0°F 54% 29.99 in 10.0 miles South 20.7 mph 26.5 mph N/A   Clear
4:54 AM 32.0°F 17.1°F 54% 29.99 in 10.0 miles South 19.6 mph - N/A   Clear
5:54 AM 30.9°F 17.1°F 57% 29.98 in 10.0 miles South 13.8 mph - N/A   Clear
6:54 AM 30.0°F 17.1°F 59% 30.00 in 10.0 miles South 13.8 mph - N/A   Clear
7:54 AM 28.0°F 16.0°F 61% 30.01 in 10.0 miles South 11.5 mph - N/A   Clear
8:54 AM 28.9°F 17.1°F 61% 30.01 in 10.0 miles South 11.5 mph - N/A   Clear
9:54 AM 32.0°F 19.0°F 59% 30.02 in 10.0 miles SSW 10.4 mph - N/A   Clear
10:54 AM 33.1°F 19.9°F 59% 30.04 in 10.0 miles SSW 11.5 mph - N/A   Clear
11:54 AM 35.1°F 21.9°F 59% 30.03 in 10.0 miles SW 10.4 mph - N/A   Clear
12:54 PM 36.0°F 23.0°F 59% 30.04 in 10.0 miles WSW 8.1 mph - N/A   Clear
1:54 PM 37.0°F 23.0°F 57% 30.04 in 10.0 miles WSW 9.2 mph - N/A   Clear
2:54 PM 34.0°F 23.0°F 64% 30.05 in 10.0 miles West 5.8 mph - N/A   Clear
3:54 PM 32.0°F 21.0°F 64% 30.06 in 10.0 miles WNW 6.9 mph - N/A   Clear
6:54 PM 28.4°F 19.4°F 69% 30.07 in 10.0 miles NW 5.8 mph - N/A   Clear
7:54 PM 25.0°F 18.0°F 75% 30.13 in 10.0 miles NW 8.1 mph - N/A   Clear
8:54 PM 25.0°F 18.0°F 75% 30.13 in 8.0 miles NW 4.6 mph - N/A   Clear
9:54 PM 24.1°F 19.0°F 81% 30.14 in 7.0 miles WNW 3.5 mph - N/A   Clear
10:54 PM 21.0°F 17.1°F 85% 30.14 in 6.0 miles NNW 4.6 mph - N/A   Clear
11:54 PM 21.9°F 17.1°F 82% 30.15 in 6.0 miles North 3.5 mph - N/A   Haze
Astronomy
Sunrise:07:36 AM (CST) Moon Rise:07:44 AM (CST)12/13
Sunset:04:32 PM (CST) Moon Set:05:16 PM (CST)12/13
Moon Phase
Dec. 13 Dec. 20 Dec. 28 Jan. 05 Jan. 11

Copyright © 2017 The Weather Underground, Inc.